Date String (YYYY-MM-DD hh:mm:ss) UTC,Instrument flags,Ambient pressure (hPa),Sample flow (lpm),Bypass flow (lpm),Sample temperature (°C),Ambient temperature (°C),ASC tube jacket temperature (°C),LED temperature (°C),Box temperature (°C),Sample RH (%),Span deviation,Mass concentration (μg/m³),Mass concentration (μg/m³),Mass concentration (μg/m³)
DateTimeUTC,F1_M11,P_M11,Q1_M11,Q2_M11,T1_M11,T2_M11,T3_M11,T4_M11,T5_M11,U1_M11,ZSPAN_M11,X0_M11,X2_M11,X1_M11
2022-03-11 14:00:00,,0826.8,4.99,0.00,22.3,22.2,00.0,31.4,24.0,06.2,0000.7,0014.75,0011.02,0010.61
2022-03-11 14:01:00,,0826.9,5.00,0.00,22.5,23.1,00.0,31.4,24.3,06.2,0000.7,0015.30,0010.99,0010.57
2022-03-11 14:02:00,,0826.8,4.99,0.00,22.6,23.5,00.0,31.5,24.5,06.1,0000.6,0015.46,0010.96,0010.55
2022-03-11 14:03:00,,0826.8,5.00,0.00,22.7,23.3,00.0,31.5,24.5,06.1,0000.1,0015.67,0010.96,0010.52
2022-03-11 14:04:00,,0826.8,4.99,0.00,22.6,22.9,00.0,31.5,24.4,06.1,-000.3,0015.70,0010.88,0010.44
2022-03-11 14:05:00,,0826.8,5.01,0.00,22.6,22.6,00.0,31.5,24.2,06.1,-000.3,0016.11,0010.88,0010.42
2022-03-11 14:06:00,,0826.8,4.99,0.00,22.5,22.3,00.0,31.5,24.1,06.2,-000.1,0016.20,0010.90,0010.46
2022-03-11 14:07:00,,0826.8,5.00,0.00,22.4,22.0,00.0,31.5,24.0,06.2,-000.5,0016.14,0010.86,0010.40
2022-03-11 14:08:00,,0826.8,5.00,0.00,22.4,21.8,00.0,31.4,23.9,06.3,-000.4,0015.89,0010.76,0010.31
2022-03-11 14:09:00,,0826.9,5.00,0.00,22.3,21.6,00.0,31.4,23.8,06.3,-000.3,0016.01,0010.79,0010.31
2022-03-11 14:10:00,,0827.0,5.00,0.00,22.3,21.5,00.0,31.4,23.8,06.4,-000.5,0015.98,0010.78,0010.30
2022-03-11 14:11:00,,0826.9,5.01,0.00,22.3,22.0,00.0,31.4,23.9,06.4,-000.1,0015.88,0010.71,0010.24
2022-03-11 14:12:00,,0826.9,5.01,0.00,22.4,23.0,00.0,31.4,24.2,06.3,0000.1,0015.22,0010.63,0010.17
2022-03-11 14:13:00,,0826.9,5.01,0.00,22.6,23.7,00.0,31.5,24.5,06.3,0000.6,0014.93,0010.53,0010.06
2022-03-11 14:14:00,,0826.9,4.99,0.00,22.7,23.5,00.0,31.5,24.6,06.3,0001.0,0014.56,0010.44,0010.01
2022-03-11 14:15:00,,0826.8,5.00,0.00,22.7,23.2,00.0,31.5,24.5,06.3,0001.3,0014.44,0010.44,0010.00
2022-03-11 14:16:00,,0826.9,5.00,0.00,22.6,22.8,00.0,31.5,24.4,06.3,0001.4,0013.89,0010.38,0009.95
2022-03-11 14:17:00,,0826.9,5.01,0.00,22.6,22.6,00.0,31.5,24.3,06.3,0001.2,0013.76,0010.30,0009.88
2022-03-11 14:18:00,,0826.9,4.99,0.00,22.6,22.3,00.0,31.5,24.2,06.3,0001.3,0013.79,0010.25,0009.83
2022-03-11 14:19:00,,0826.9,5.01,0.00,22.6,22.1,00.0,31.5,24.2,06.4,0001.5,0014.34,0010.23,0009.82
2022-03-11 14:20:00,,0827.0,5.00,0.00,22.5,22.0,00.0,31.5,24.1,06.4,0001.8,0014.15,0010.15,0009.76
2022-03-11 14:21:00,,0826.9,4.99,0.00,22.4,21.8,00.0,31.5,24.0,06.4,0002.0,0014.15,0010.11,0009.71
2022-03-11 14:22:00,,0827.0,5.00,0.00,22.4,21.7,00.0,31.5,23.9,06.5,0001.5,0014.52,0010.15,0009.73
2022-03-11 14:23:00,,0827.0,5.00,0.00,22.3,21.6,00.0,31.4,23.9,06.4,0001.1,0014.97,0010.14,0009.72
2022-03-11 14:24:00,,0827.0,5.01,0.00,22.3,21.8,00.0,31.4,23.9,06.4,0000.8,0014.88,0010.11,0009.70
2022-03-11 14:25:00,,0827.0,5.00,0.00,22.4,22.8,00.0,31.5,24.2,06.4,0000.2,0014.95,0010.11,0009.69
2022-03-11 14:26:00,,0827.0,4.99,0.00,22.6,23.5,00.0,31.5,24.5,06.4,0000.1,0015.06,0010.05,0009.62
2022-03-11 14:27:00,,0827.0,5.01,0.00,22.7,23.3,00.0,31.5,24.5,06.3,-000.1,0015.05,0010.01,0009.58
2022-03-11 14:28:00,,0827.0,5.00,0.00,22.7,23.0,00.0,31.5,24.5,06.3,0000.5,0015.14,0010.00,0009.56
2022-03-11 14:29:00,,0827.0,5.01,0.00,22.6,22.7,00.0,31.5,24.4,06.2,0000.3,0015.23,0010.00,0009.53
2022-03-11 14:30:00,,0827.0,4.99,0.00,22.6,22.5,00.0,31.5,24.3,06.2,0000.3,0014.64,0009.99,0009.49
2022-03-11 14:31:00,,0827.1,5.00,0.00,22.6,22.3,00.0,31.5,24.2,06.2,-000.1,0014.66,0009.99,0009.47
2022-03-11 14:32:00,,0827.1,5.01,0.00,22.5,22.1,00.0,31.5,24.2,06.2,0000.0,0014.64,0009.97,0009.44
2022-03-11 14:33:00,,0827.1,5.00,0.00,22.5,22.0,00.0,31.5,24.2,06.2,0000.3,0014.36,0009.85,0009.33
2022-03-11 14:34:00,,0827.1,4.99,0.00,22.5,21.8,00.0,31.5,24.1,06.1,0000.0,0013.93,0009.76,0009.26
2022-03-11 14:35:00,,0827.1,5.01,0.00,22.5,21.8,00.0,31.5,24.0,06.1,-000.2,0014.20,0009.74,0009.23
2022-03-11 14:36:00,,0827.1,4.99,0.00,22.4,21.7,00.0,31.5,24.0,06.2,-000.1,0014.14,0009.71,0009.20
2022-03-11 14:37:00,,0827.1,5.01,0.00,22.5,22.2,00.0,31.5,24.1,06.2,-000.1,0013.96,0009.68,0009.17
2022-03-11 14:38:00,,0827.2,5.01,0.00,22.6,23.2,00.0,31.5,24.4,06.2,0000.5,0013.97,0009.67,0009.15
2022-03-11 14:39:00,,0827.2,5.00,0.00,22.7,23.6,00.0,31.6,24.6,06.2,0000.4,0014.03,0009.64,0009.13
2022-03-11 14:40:00,,0827.1,5.00,0.00,22.8,23.3,00.0,31.6,24.6,06.2,0000.4,0014.26,0009.61,0009.12
2022-03-11 14:41:00,,0827.1,5.00,0.00,22.8,23.1,00.0,31.6,24.6,06.2,0000.5,0014.10,0009.55,0009.10
2022-03-11 14:42:00,,0827.1,4.99,0.00,22.8,22.8,00.0,31.6,24.5,06.2,0000.7,0014.05,0009.52,0009.09
2022-03-11 14:43:00,,0827.1,4.99,0.00,22.7,22.6,00.0,31.6,24.5,06.2,0000.6,0014.05,0009.50,0009.07
2022-03-11 14:44:00,,0827.2,5.01,0.00,22.7,22.4,00.0,31.6,24.4,06.3,0000.3,0014.11,0009.56,0009.10
2022-03-11 14:45:00,,0827.1,5.00,0.00,22.7,22.3,00.0,31.6,24.3,06.1,0000.7,0014.11,0009.60,0009.13
2022-03-11 14:46:00,,0827.4,5.00,0.00,22.7,22.1,00.0,31.6,24.3,06.1,0001.1,0013.83,0009.63,0009.15
2022-03-11 14:47:00,,0827.8,5.00,0.00,22.6,22.0,00.0,31.6,24.3,06.1,0001.2,0013.89,0009.64,0009.15
2022-03-11 14:48:00,,0827.6,5.00,0.00,22.6,21.9,00.0,31.6,24.2,06.1,0000.8,0013.90,0009.62,0009.17
2022-03-11 14:49:00,,0827.3,5.00,0.00,22.6,21.9,00.0,31.6,24.2,05.9,0000.4,0013.78,0009.57,0009.14
2022-03-11 14:50:00,,0827.2,5.00,0.00,22.6,21.8,00.0,31.6,24.2,05.9,0000.3,0013.53,0009.53,0009.12
2022-03-11 14:51:00,,0827.3,5.00,0.00,22.5,21.8,00.0,31.6,24.2,05.9,0000.8,0013.09,0009.51,0009.12
2022-03-11 14:52:00,,0827.3,5.00,0.00,22.5,21.9,00.0,31.6,24.2,06.0,0000.7,0013.07,0009.49,0009.10
2022-03-11 14:53:00,,0827.3,5.00,0.00,22.6,22.8,00.0,31.6,24.4,06.0,0000.9,0012.99,0009.46,0009.08
2022-03-11 14:54:00,,0827.2,5.01,0.00,22.7,23.6,00.0,31.6,24.6,06.1,0001.1,0013.00,0009.45,0009.07
2022-03-11 14:55:00,,0827.3,5.00,0.00,22.8,23.6,00.0,31.6,24.8,06.1,0001.3,0012.91,0009.40,0009.04
2022-03-11 14:56:00,,0827.4,4.99,0.00,22.9,23.3,00.0,31.7,24.7,06.0,0001.6,0012.64,0009.34,0009.01
2022-03-11 14:57:00,,0827.4,4.99,0.00,22.8,23.0,00.0,31.7,24.7,06.0,0001.5,0012.62,0009.31,0008.97
2022-03-11 14:58:00,,0827.4,5.01,0.00,22.8,22.8,00.0,31.7,24.6,06.0,0001.8,0012.64,0009.30,0008.95
2022-03-11 14:59:00,,0827.3,5.01,0.00,22.8,22.6,00.0,31.7,24.6,06.1,0002.4,0012.55,0009.31,0008.92
